Location: Canyon City
(32.5951°N, 116.5278°W)
Time: 13:23:58
(UTC+00:00)

Daily predictions for brighter satellites

Satellite Brightness Start Highest point End
(mag) Time Altitude Azimuth Time Altitude Azimuth Time Altitude Azimuth
Tiangong -0.4 12:01:58 19° NNW 12:03:29 28° NNE 12:06:16 10° E
Cosmos 1500 2.7 12:01:02 10° NNW 12:04:20 63° W 12:05:43 30° SSW
CZ-3 Stage 3 3.8 12:01:14 10° S 12:04:27 21° SE 12:11:33 10° E
Thor Agena Rocket 3.4 12:00:36 10° N 12:05:44 82° WNW 12:10:56 10° SSW
OAO 3 Rocket 4.3 12:06:48 24° SSW 12:06:48 24° SSW 12:10:31 10° SSE
Cosmos 1934 Rocket 4.1 12:01:19 10° N 12:07:39 84° E 12:13:59 10° S
Cosmos 2237 4.3 12:06:09 10° NNW 12:11:36 48° WSW 12:17:00 10° S
IRS-1D 3.8 12:06:42 10° N 12:11:48 49° WNW 12:15:43 17° SW
Cosmos 1726 Rocket 4.3 12:08:30 10° S 12:12:41 53° E 12:16:53 10° NNE
Cosmos 1833 4.4 12:10:47 21° SW 12:14:27 53° WNW 12:20:03 10° N
Cosmos 1190 Rocket 4.5 12:16:39 22° SW 12:19:29 39° WNW 12:24:20 10° N
Cosmos 540 Rocket 3.8 12:17:57 10° N 12:23:03 67° ENE 12:28:07 10° SSE
Lacrosse 5 rocket 2.6 12:22:21 10° S 12:25:30 30° ESE 12:28:34 10° ENE
SL-16 R/B 4.4 12:28:59 10° WNW 12:28:59 10° WNW 12:29:01 10° WNW
Cosmos 1763 Rocket 3.4 12:21:46 10° NNW 12:26:55 79° WSW 12:32:06 10° S
Okean 1-7 Rocket 3.7 12:26:43 10° NNW 12:31:02 50° W 12:35:18 10° SSW
GP-B 3.8 12:27:57 10° SSE 12:32:15 58° E 12:36:34 10° N
Cosmos 1606 Rocket 3.6 12:30:00 10° SSW 12:34:11 55° W 12:38:26 10° N
SWIFT 4.5 12:33:27 10° SSW 12:34:15 10° S 12:35:03 10° S
Cosmos 676 Rocket 4.2 12:29:52 10° SW 12:34:51 49° WNW 12:39:52 10° N
Cosmos 1812 2.6 12:32:27 10° SSW 12:35:51 52° W 12:39:18 10° N
Cosmos 1825 Rocket 3.7 12:31:57 10° N 12:36:23 79° E 12:40:45 10° S
Cosmos 2360 Rocket 2.1 12:31:19 10° NNW 12:36:56 81° WSW 12:42:32 10° SSE
NOSS 3-2 (A) 3.4 12:35:01 13° SW 12:39:21 48° NW 12:44:49 10° NNE
COSMOS 2455 4.3 12:37:47 13° W 12:41:11 20° NW 12:45:33 10° N
CBERS-1 4.0 12:36:46 10° N 12:41:51 72° WNW 12:46:54 10° SSW
Cosmos 2322 Rocket 2.3 12:40:10 10° NNW 12:45:38 51° WSW 12:51:03 10° S
Cosmos 2151 3.2 12:43:21 10° N 12:47:29 72° E 12:51:36 10° SSE
Cosmos 1605 Rocket 4.0 12:41:42 10° N 12:47:58 79° W 12:54:07 10° S
JB-3 4.3 12:45:06 10° S 12:48:49 58° W 12:52:38 10° NNW
ATLAS 5 CENTAUR R/B 0.6 12:45:45 10° SSW 12:48:57 77° WNW 12:52:14 10° NNE
CZ-2C R/B 4.3 12:48:20 10° NW 12:49:52 11° WNW 12:51:21 10° W
ISS -2.5 12:48:14 10° WNW 12:51:01 23° SW 12:53:46 10° S
Cosmos 2333 Rocket 2.2 12:47:16 10° NNW 12:52:53 60° WSW 12:58:25 10° S
CENTAUR R/B 3.6 12:52:25 10° W 12:56:48 24° NW 13:01:56 10° N
Cosmos 2219 Rocket 2.5 12:52:25 10° NNW 12:58:04 76° ENE 13:03:38 10° SSE
ARGOS 3.3 12:54:37 10° N 12:59:49 53° WNW 13:05:00 10° SSW
H-2A R/B 1.9 13:00:42 10° N 13:03:38 73° WNW 13:06:33 10° SSW
SL-16 R/B 3.4 13:01:14 10° WNW 13:05:04 19° W 13:08:52 10° SW
SJ 16-02 1.7 13:00:54 10° S 13:05:13 71° ESE 13:09:33 10° NNE
USA 215 3.3 13:00:21 10° SE 13:06:53 76° SW 13:13:27 10° NW
